Location: Casteau
(50.5142°N, 4.0161°E)
Time: 23:52:47
(UTC+00:00)

S-56A Canister/Altair - Pass Details

Date: 03 August 2021
Orbit: 632 x 2500 km, 38.9° (Epoch: 19 September)

Event Time Altitude Azimuth Distance (km) Brightness Sun altitude
Rises 20:13:17 0° 280° (W) 6,174 13.4 -7.2°
Reaches altitude 10° 20:18:33 10° 268° (W) 5,157 12.5 -7.9°
Maximum altitude 20:28:42 23° 225° (SW) 3,942 11.2 -9.1°
Drops below altitude 10° 20:37:37 10° 180° (S) 4,458 11.0 -10.2°
Enters shadow 20:40:47 - 169° (S) 4,981 11.2 -10.5°
Sets 20:41:47 0° 166° (SSE) 5,170 - -10.6°
